Location: Unspecified
(48.7971°N, 123.6320°W)
Time: 21:21:00
(UTC-07:00)

Okean 3 - Pass Details

Date: 04 July 2019
Orbit: 577 x 600 km, 82.5° (Epoch: 13 October)

Event Time Altitude Azimuth Distance (km) Brightness Sun altitude
Rises 02:23:56 0° 3° (N) 2,860 8.6 -16.9°
Reaches altitude 10° 02:26:48 10° 23° (NNE) 1,949 7.4 -16.7°
Maximum altitude 02:29:45 18° 66° (ENE) 1,501 6.0 -16.6°
Drops below altitude 10° 02:32:39 10° 109° (ESE) 1,932 6.1 -16.5°
Sets 02:35:28 0° 129° (SE) 2,823 6.7 -16.3°
Enters shadow 02:35:37 - 130° (SE) 2,876 6.8 -16.3°
